Time,TemperatureF,DewpointF,PressureIn,WindDirection,WindDirectionDegrees,WindSpeedMPH,WindSpeedGustMPH,Humidity,HourlyPrecipIn,Conditions,Clouds,dailyrainin,SoftwareType,DateUTC
2014-11-26 00:04:00,30.0,29.5,29.41,SW,225,2.4,2.4,98,0.00,CLR,,0.00,WeatherDisplay:10.37,2014-11-26 05:04:00,
2014-11-26 00:09:00,30.0,29.5,29.41,SW,225,1.2,0.0,98,0.00,CLR,,0.00,WeatherDisplay:10.37,2014-11-26 05:09:00,
2014-11-26 00:14:00,30.0,29.5,29.41,SW,225,0.0,0.0,98,0.00,CLR,,0.00,WeatherDisplay:10.37,2014-11-26 05:14:00,
2014-11-26 00:19:00,30.0,29.5,29.41,SSW,202,2.4,2.4,98,0.00,CLR,,0.00,WeatherDisplay:10.37,2014-11-26 05:19:00,
2014-11-26 00:24:00,30.0,29.5,29.41,SW,225,3.5,3.5,98,0.00,CLR,,0.00,WeatherDisplay:10.37,2014-11-26 05:24:00,
2014-11-26 00:29:00,30.0,29.5,29.41,SW,225,2.3,0.0,98,0.00,CLR,,0.00,WeatherDisplay:10.37,2014-11-26 05:29:00,
2014-11-26 00:34:00,30.0,29.5,29.41,SW,225,2.3,0.0,98,0.00,CLR,,0.00,WeatherDisplay:10.37,2014-11-26 05:34:00,
2014-11-26 00:39:00,30.0,29.5,29.41,SW,225,3.5,3.5,98,0.00,CLR,,0.00,WeatherDisplay:10.37,2014-11-26 05:39:00,
2014-11-26 00:44:00,30.0,29.5,29.41,SW,225,3.5,3.5,98,0.00,CLR,,0.00,WeatherDisplay:10.37,2014-11-26 05:44:00,
2014-11-26 00:49:00,29.8,29.3,29.35,SW,225,4.6,4.6,98,0.00,CLR,,0.00,WeatherDisplay:10.37,2014-11-26 05:49:00,
2014-11-26 00:54:00,29.8,29.3,29.35,South,180,2.3,2.3,98,0.00,CLR,,0.00,WeatherDisplay:10.37,2014-11-26 05:54:00,
2014-11-26 00:59:00,29.8,29.3,29.35,SW,225,1.2,0.0,98,0.00,CLR,,0.00,WeatherDisplay:10.37,2014-11-26 05:59:00,
2014-11-26 01:04:00,29.8,29.3,29.38,SW,225,0.0,0.0,98,0.00,CLR,,0.00,WeatherDisplay:10.37,2014-11-26 06:04:00,
2014-11-26 01:09:00,29.8,29.3,29.38,South,180,3.5,3.5,98,0.00,CLR,,0.00,WeatherDisplay:10.37,2014-11-26 06:09:00,
2014-11-26 01:14:00,29.7,29.2,29.38,SW,225,0.0,0.0,98,0.00,CLR,,0.00,WeatherDisplay:10.37,2014-11-26 06:14:00,
2014-11-26 01:19:00,29.7,29.2,29.38,SW,225,0.0,0.0,98,0.00,CLR,,0.00,WeatherDisplay:10.37,2014-11-26 06:19:00,
2014-11-26 01:24:00,29.5,29.0,29.38,SW,225,2.3,2.3,98,0.00,CLR,,0.00,WeatherDisplay:10.37,2014-11-26 06:24:00,
2014-11-26 01:29:00,29.5,29.0,29.38,SW,225,2.3,2.3,98,0.00,CLR,,0.00,WeatherDisplay:10.37,2014-11-26 06:29:00,
2014-11-26 01:34:00,29.3,28.8,29.38,South,180,2.3,2.3,98,0.00,CLR,,0.00,WeatherDisplay:10.37,2014-11-26 06:34:00,
2014-11-26 01:39:00,29.1,28.6,29.38,SW,225,0.0,0.0,98,0.00,CLR,,0.00,WeatherDisplay:10.37,2014-11-26 06:39:00,
2014-11-26 01:44:00,28.9,28.4,29.38,South,180,2.3,2.4,98,0.00,CLR,,0.00,WeatherDisplay:10.37,2014-11-26 06:44:00,
2014-11-26 01:49:00,28.6,28.1,29.38,SW,225,1.2,1.2,98,0.00,CLR,,0.00,WeatherDisplay:10.37,2014-11-26 06:49:00,
2014-11-26 01:54:00,28.4,27.9,29.38,SW,225,0.0,0.0,98,0.00,CLR,,0.00,WeatherDisplay:10.37,2014-11-26 06:54:00,
2014-11-26 01:59:00,28.2,27.7,29.38,SW,225,0.0,0.0,98,0.00,CLR,,0.00,WeatherDisplay:10.37,2014-11-26 06:59:00,
2014-11-26 02:04:00,27.9,27.4,29.38,SW,225,0.0,0.0,98,0.00,CLR,,0.00,WeatherDisplay:10.37,2014-11-26 07:04:00,
2014-11-26 02:09:00,27.7,27.2,29.38,SW,225,0.0,0.0,98,0.00,CLR,,0.00,WeatherDisplay:10.37,2014-11-26 07:09:00,
2014-11-26 02:14:00,27.5,27.0,29.38,SW,225,0.0,0.0,98,0.00,CLR,,0.00,WeatherDisplay:10.37,2014-11-26 07:14:00,
2014-11-26 02:19:00,27.5,27.0,29.41,SW,225,0.0,0.0,98,0.00,CLR,,0.00,WeatherDisplay:10.37,2014-11-26 07:19:00,
2014-11-26 02:24:00,27.7,27.2,29.41,SW,225,0.0,0.0,98,0.00,CLR,,0.00,WeatherDisplay:10.37,2014-11-26 07:24:00,
2014-11-26 02:29:00,27.9,27.4,29.41,SW,225,0.0,0.0,98,0.00,CLR,,0.00,WeatherDisplay:10.37,2014-11-26 07:29:00,
2014-11-26 02:34:00,27.9,27.4,29.38,South,180,1.2,1.2,98,0.00,CLR,,0.00,WeatherDisplay:10.37,2014-11-26 07:34:00,
2014-11-26 02:39:00,27.9,27.4,29.38,South,180,0.0,0.0,98,0.00,CLR,,0.00,WeatherDisplay:10.37,2014-11-26 07:39:00,
2014-11-26 02:44:00,27.5,27.0,29.38,SSW,202,0.0,0.0,98,0.00,CLR,,0.00,WeatherDisplay:10.37,2014-11-26 07:44:00,
2014-11-26 02:49:00,27.3,26.8,29.38,South,180,3.5,3.5,98,0.00,CLR,,0.00,WeatherDisplay:10.37,2014-11-26 07:49:00,
2014-11-26 02:54:00,27.1,26.7,29.38,South,180,2.3,2.3,98,0.00,CLR,,0.00,WeatherDisplay:10.37,2014-11-26 07:54:00,
2014-11-26 02:59:00,27.0,26.5,29.38,SSW,202,4.6,4.6,98,0.00,CLR,,0.00,WeatherDisplay:10.37,2014-11-26 07:59:00,
2014-11-26 03:04:00,27.0,26.5,29.38,SW,225,2.3,2.3,98,0.00,CLR,,0.00,WeatherDisplay:10.37,2014-11-26 08:04:00,
2014-11-26 03:09:00,26.6,26.1,29.38,SW,225,1.2,0.0,98,0.00,CLR,,0.00,WeatherDisplay:10.37,2014-11-26 08:09:00,
2014-11-26 03:14:00,26.6,26.1,29.38,SW,225,0.0,0.0,98,0.00,CLR,,0.00,WeatherDisplay:10.37,2014-11-26 08:14:00,
2014-11-26 03:20:00,26.4,25.9,29.41,SW,225,0.0,0.0,98,0.00,CLR,,0.00,WeatherDisplay:10.37,2014-11-26 08:20:00,
2014-11-26 03:25:00,26.4,25.9,29.41,SSW,202,2.3,2.3,98,0.00,CLR,,0.00,WeatherDisplay:10.37,2014-11-26 08:25:00,
2014-11-26 03:31:00,26.4,25.9,29.41,SW,225,2.3,2.3,98,0.00,CLR,,0.00,WeatherDisplay:10.37,2014-11-26 08:31:00,
2014-11-26 03:36:00,26.6,26.1,29.41,SW,225,2.3,2.3,98,0.00,CLR,,0.00,WeatherDisplay:10.37,2014-11-26 08:36:00,
2014-11-26 03:41:00,26.4,25.9,29.41,SW,225,2.3,0.0,98,0.00,CLR,,0.00,WeatherDisplay:10.37,2014-11-26 08:41:00,
2014-11-26 03:46:00,26.2,25.8,29.38,SW,225,2.3,2.3,98,0.00,CLR,,0.00,WeatherDisplay:10.37,2014-11-26 08:46:00,
2014-11-26 03:51:00,26.2,25.8,29.38,SW,225,4.6,4.6,98,0.00,CLR,,0.00,WeatherDisplay:10.37,2014-11-26 08:51:00,
2014-11-26 03:56:00,26.4,25.9,29.38,SW,225,3.6,3.6,98,0.00,CLR,,0.00,WeatherDisplay:10.37,2014-11-26 08:56:00,
2014-11-26 04:01:00,26.8,26.3,29.38,SW,225,4.6,4.6,98,0.00,CLR,,0.00,WeatherDisplay:10.37,2014-11-26 09:01:00,
2014-11-26 04:06:00,27.0,26.5,29.38,SW,225,5.8,5.8,98,0.00,CLR,,0.00,WeatherDisplay:10.37,2014-11-26 09:06:00,
2014-11-26 04:11:00,27.0,26.5,29.38,SSW,202,4.6,4.6,98,0.00,CLR,,0.00,WeatherDisplay:10.37,2014-11-26 09:11:00,
2014-11-26 04:16:00,26.8,26.3,29.38,South,180,5.8,5.8,98,0.00,CLR,,0.00,WeatherDisplay:10.37,2014-11-26 09:16:00,
2014-11-26 04:21:00,26.8,26.3,29.38,South,180,6.9,6.9,98,0.00,CLR,,0.00,WeatherDisplay:10.37,2014-11-26 09:21:00,
2014-11-26 04:26:00,26.8,26.3,29.38,SSW,202,4.6,4.6,98,0.00,CLR,,0.00,WeatherDisplay:10.37,2014-11-26 09:26:00,
2014-11-26 04:31:00,26.4,25.9,29.35,South,180,3.5,3.5,98,0.00,CLR,,0.00,WeatherDisplay:10.37,2014-11-26 09:31:00,
2014-11-26 04:36:00,26.4,25.9,29.35,South,180,5.8,5.8,98,0.00,CLR,,0.00,WeatherDisplay:10.37,2014-11-26 09:36:00,
2014-11-26 04:41:00,26.2,25.8,29.35,South,180,3.5,3.5,98,0.00,CLR,,0.00,WeatherDisplay:10.37,2014-11-26 09:41:00,
2014-11-26 04:46:00,26.2,25.8,29.35,SSW,202,5.8,5.8,98,0.00,CLR,,0.00,WeatherDisplay:10.37,2014-11-26 09:46:00,
2014-11-26 04:51:00,26.1,25.6,29.35,SW,225,3.5,3.5,98,0.00,CLR,,0.00,WeatherDisplay:10.37,2014-11-26 09:51:00,
2014-11-26 04:56:00,25.9,25.4,29.35,SSW,202,4.6,4.6,98,0.00,CLR,,0.00,WeatherDisplay:10.37,2014-11-26 09:56:00,
2014-11-26 05:01:00,25.9,25.4,29.35,SW,225,2.3,2.3,98,0.00,CLR,,0.00,WeatherDisplay:10.37,2014-11-26 10:01:00,
2014-11-26 05:06:00,25.7,25.2,29.35,SW,225,3.5,3.5,98,0.00,CLR,,0.00,WeatherDisplay:10.37,2014-11-26 10:06:00,
2014-11-26 05:11:00,25.7,25.2,29.35,SW,225,2.6,0.0,98,0.00,CLR,,0.00,WeatherDisplay:10.37,2014-11-26 10:11:00,
2014-11-26 05:16:00,25.7,25.2,29.35,SSW,202,4.6,4.6,98,0.00,CLR,,0.00,WeatherDisplay:10.37,2014-11-26 10:16:00,
2014-11-26 05:21:00,25.5,25.0,29.35,South,180,3.5,3.5,98,0.00,CLR,,0.00,WeatherDisplay:10.37,2014-11-26 10:21:00,
2014-11-26 05:26:00,25.5,25.0,29.35,South,180,3.5,3.5,98,0.00,CLR,,0.00,WeatherDisplay:10.37,2014-11-26 10:26:00,
2014-11-26 05:31:00,25.3,24.9,29.35,South,180,2.9,2.9,98,0.00,CLR,,0.00,WeatherDisplay:10.37,2014-11-26 10:31:00,
2014-11-26 05:37:00,25.5,25.0,29.35,South,180,5.8,5.8,98,0.00,CLR,,0.00,WeatherDisplay:10.37,2014-11-26 10:37:00,
2014-11-26 05:42:00,25.3,24.9,29.35,South,180,2.3,2.3,98,0.00,CLR,,0.00,WeatherDisplay:10.37,2014-11-26 10:42:00,
2014-11-26 05:47:00,25.3,24.9,29.35,South,180,3.1,3.1,98,0.00,CLR,,0.00,WeatherDisplay:10.37,2014-11-26 10:47:00,
2014-11-26 05:52:00,25.3,24.9,29.35,SSW,202,3.5,3.5,98,0.00,CLR,,0.00,WeatherDisplay:10.37,2014-11-26 10:52:00,
2014-11-26 05:57:00,25.5,25.0,29.35,SW,225,2.3,2.3,98,0.00,CLR,,0.00,WeatherDisplay:10.37,2014-11-26 10:57:00,
2014-11-26 06:02:00,25.7,25.2,29.35,South,180,2.3,2.3,98,0.00,CLR,,0.00,WeatherDisplay:10.37,2014-11-26 11:02:00,
2014-11-26 06:07:00,25.9,25.4,29.35,South,180,2.3,2.3,98,0.00,CLR,,0.00,WeatherDisplay:10.37,2014-11-26 11:07:00,
2014-11-26 06:12:00,26.1,25.6,29.35,SSW,202,2.3,2.3,98,0.00,CLR,,0.00,WeatherDisplay:10.37,2014-11-26 11:12:00,
2014-11-26 06:17:00,26.4,25.9,29.35,South,180,3.3,3.3,98,0.00,CLR,,0.00,WeatherDisplay:10.37,2014-11-26 11:17:00,
2014-11-26 06:22:00,26.6,26.1,29.35,South,180,3.5,3.5,98,0.00,CLR,,0.00,WeatherDisplay:10.37,2014-11-26 11:22:00,
2014-11-26 06:27:00,26.6,26.1,29.35,South,180,5.8,5.8,98,0.00,CLR,,0.00,WeatherDisplay:10.37,2014-11-26 11:27:00,
2014-11-26 06:32:00,26.6,26.1,29.35,South,180,5.8,5.8,98,0.00,CLR,,0.00,WeatherDisplay:10.37,2014-11-26 11:32:00,
2014-11-26 06:37:00,26.2,25.8,29.35,South,180,2.3,2.3,98,0.00,CLR,,0.00,WeatherDisplay:10.37,2014-11-26 11:37:00,
2014-11-26 06:42:00,26.1,25.6,29.35,SSW,202,2.3,2.3,98,0.00,CLR,,0.00,WeatherDisplay:10.37,2014-11-26 11:42:00,
2014-11-26 06:47:00,26.2,25.8,29.35,South,180,2.3,2.4,98,0.00,CLR,,0.00,WeatherDisplay:10.37,2014-11-26 11:47:00,
2014-11-26 06:52:00,26.1,25.6,29.35,SSW,202,0.0,0.0,98,0.00,CLR,,0.00,WeatherDisplay:10.37,2014-11-26 11:52:00,
2014-11-26 06:57:00,25.9,25.4,29.35,SW,225,4.6,4.6,98,0.00,CLR,,0.00,WeatherDisplay:10.37,2014-11-26 11:57:00,
2014-11-26 07:02:00,25.9,25.4,29.35,South,180,2.4,2.4,98,0.00,CLR,,0.00,WeatherDisplay:10.37,2014-11-26 12:02:00,
2014-11-26 07:07:00,26.1,25.6,29.35,SW,225,3.5,3.5,98,0.00,CLR,,0.00,WeatherDisplay:10.37,2014-11-26 12:07:00,
2014-11-26 07:12:00,26.2,25.8,29.35,SW,225,0.0,0.0,98,0.00,CLR,,0.00,WeatherDisplay:10.37,2014-11-26 12:12:00,
2014-11-26 07:17:00,26.4,25.9,29.35,South,180,2.3,2.3,98,0.00,CLR,,0.00,WeatherDisplay:10.37,2014-11-26 12:17:00,
2014-11-26 07:22:00,27.0,26.5,29.35,South,180,2.3,2.3,98,0.00,CLR,,0.00,WeatherDisplay:10.37,2014-11-26 12:22:00,
2014-11-26 07:27:00,27.1,26.7,29.35,SSW,202,5.8,5.8,98,0.00,CLR,,0.00,WeatherDisplay:10.37,2014-11-26 12:27:00,
2014-11-26 07:32:00,27.3,26.8,29.35,SW,225,0.0,0.0,98,0.00,CLR,,0.00,WeatherDisplay:10.37,2014-11-26 12:32:00,
2014-11-26 07:37:00,27.7,27.2,29.35,South,180,3.5,3.5,98,0.00,CLR,,0.00,WeatherDisplay:10.37,2014-11-26 12:37:00,
2014-11-26 07:42:00,27.9,27.4,29.35,SW,225,4.6,4.6,98,0.00,CLR,,0.00,WeatherDisplay:10.37,2014-11-26 12:42:00,
2014-11-26 07:48:00,28.0,27.5,29.38,SSW,202,2.6,2.6,98,0.00,CLR,,0.00,WeatherDisplay:10.37,2014-11-26 12:48:00,
2014-11-26 07:53:00,28.2,27.7,29.38,South,180,2.3,2.3,98,0.00,CLR,,0.00,WeatherDisplay:10.37,2014-11-26 12:53:00,
2014-11-26 07:58:00,28.4,27.9,29.38,South,180,2.3,2.3,98,0.00,CLR,,0.00,WeatherDisplay:10.37,2014-11-26 12:58:00,
2014-11-26 08:03:00,28.6,28.1,29.38,South,180,4.6,4.6,98,0.00,CLR,,0.00,WeatherDisplay:10.37,2014-11-26 13:03:00,
2014-11-26 08:08:00,28.6,28.1,29.38,SW,225,2.3,2.3,98,0.00,CLR,,0.00,WeatherDisplay:10.37,2014-11-26 13:08:00,
2014-11-26 08:13:00,28.8,28.3,29.38,South,180,2.3,2.3,98,0.00,CLR,,0.00,WeatherDisplay:10.37,2014-11-26 13:13:00,
2014-11-26 08:18:00,28.9,28.4,29.38,SSW,202,2.4,0.0,98,0.00,CLR,,0.00,WeatherDisplay:10.37,2014-11-26 13:18:00,
2014-11-26 08:23:00,29.1,28.6,29.38,SSW,202,1.2,0.0,98,0.00,CLR,,0.00,WeatherDisplay:10.37,2014-11-26 13:23:00,
2014-11-26 08:28:00,29.3,28.8,29.38,SW,225,1.2,1.6,98,0.00,CLR,,0.00,WeatherDisplay:10.37,2014-11-26 13:28:00,
2014-11-26 08:33:00,29.3,28.8,29.38,South,180,0.0,0.0,98,0.00,CLR,,0.00,WeatherDisplay:10.37,2014-11-26 13:33:00,
2014-11-26 08:38:00,29.5,29.0,29.38,SSW,202,2.3,2.3,98,0.00,CLR,,0.00,WeatherDisplay:10.37,2014-11-26 13:38:00,
2014-11-26 08:43:00,29.5,29.0,29.38,South,180,4.6,4.6,98,0.00,CLR,,0.00,WeatherDisplay:10.37,2014-11-26 13:43:00,
2014-11-26 08:48:00,29.7,29.2,29.38,SW,225,4.6,4.6,98,0.00,CLR,,0.00,WeatherDisplay:10.37,2014-11-26 13:48:00,
2014-11-26 08:53:00,29.8,29.3,29.38,South,180,4.6,4.6,98,0.00,CLR,,0.00,WeatherDisplay:10.37,2014-11-26 13:53:00,
2014-11-26 08:58:00,30.0,29.5,29.38,South,180,2.3,2.3,98,0.00,CLR,,0.00,WeatherDisplay:10.37,2014-11-26 13:58:00,
2014-11-26 09:03:00,30.2,29.7,29.38,South,180,2.3,2.4,98,0.00,CLR,,0.00,WeatherDisplay:10.37,2014-11-26 14:03:00,
2014-11-26 09:08:00,30.2,29.7,29.38,South,180,5.8,5.8,98,0.00,CLR,,0.00,WeatherDisplay:10.37,2014-11-26 14:08:00,
2014-11-26 09:13:00,30.4,29.9,29.38,South,180,4.6,4.6,98,0.00,CLR,,0.00,WeatherDisplay:10.37,2014-11-26 14:13:00,
2014-11-26 09:18:00,30.4,29.9,29.35,South,180,3.5,3.5,98,0.00,CLR,,0.00,WeatherDisplay:10.37,2014-11-26 14:18:00,
2014-11-26 09:23:00,30.6,30.1,29.35,SSW,202,2.3,2.3,98,0.00,CLR,,0.00,WeatherDisplay:10.37,2014-11-26 14:23:00,
2014-11-26 09:28:00,30.6,30.1,29.35,SW,225,2.3,2.3,98,0.00,CLR,,0.00,WeatherDisplay:10.37,2014-11-26 14:28:00,
2014-11-26 09:33:00,30.7,30.2,29.35,SSW,202,4.6,4.6,98,0.00,CLR,,0.00,WeatherDisplay:10.37,2014-11-26 14:33:00,
2014-11-26 09:38:00,30.7,30.2,29.35,SW,225,2.4,2.4,98,0.00,CLR,,0.00,WeatherDisplay:10.37,2014-11-26 14:38:00,
2014-11-26 09:43:00,30.9,30.4,29.35,South,180,2.3,2.3,98,0.00,CLR,,0.00,WeatherDisplay:10.37,2014-11-26 14:43:00,
2014-11-26 09:48:00,31.1,30.6,29.38,South,180,6.9,6.9,98,0.00,CLR,,0.00,WeatherDisplay:10.37,2014-11-26 14:48:00,
2014-11-26 09:53:00,31.1,30.6,29.38,South,180,5.8,5.8,98,0.00,CLR,,0.00,WeatherDisplay:10.37,2014-11-26 14:53:00,
2014-11-26 09:58:00,31.3,30.8,29.38,South,180,3.5,3.5,98,0.00,CLR,,0.00,WeatherDisplay:10.37,2014-11-26 14:58:00,
2014-11-26 10:03:00,31.5,31.0,29.38,SW,225,2.3,2.3,98,0.00,CLR,,0.00,WeatherDisplay:10.37,2014-11-26 15:03:00,
2014-11-26 10:08:00,31.6,31.1,29.38,SE,135,3.5,3.5,98,0.00,CLR,,0.00,WeatherDisplay:10.37,2014-11-26 15:08:00,
2014-11-26 10:13:00,32.0,31.5,29.38,SSW,202,2.3,0.0,98,0.00,CLR,,0.00,WeatherDisplay:10.37,2014-11-26 15:13:00,
2014-11-26 10:18:00,32.0,31.5,29.38,SW,225,5.8,5.8,98,0.00,CLR,,0.00,WeatherDisplay:10.37,2014-11-26 15:18:00,
2014-11-26 10:23:00,32.0,31.5,29.38,SW,225,2.0,2.0,98,0.00,CLR,,0.00,WeatherDisplay:10.37,2014-11-26 15:23:00,
2014-11-26 10:28:00,32.4,31.9,29.38,SW,225,0.0,0.0,98,0.00,CLR,,0.00,WeatherDisplay:10.37,2014-11-26 15:28:00,
2014-11-26 10:33:00,32.5,32.0,29.38,SSW,202,2.3,2.3,98,0.00,CLR,,0.00,WeatherDisplay:10.37,2014-11-26 15:33:00,
2014-11-26 10:38:00,32.9,32.4,29.38,SW,225,3.8,3.8,98,0.00,CLR,,0.00,WeatherDisplay:10.37,2014-11-26 15:38:00,
2014-11-26 10:43:00,32.7,32.2,29.38,South,180,4.6,4.6,98,0.00,CLR,,0.00,WeatherDisplay:10.37,2014-11-26 15:43:00,
2014-11-26 10:48:00,32.9,32.4,29.38,SSW,202,3.5,3.5,98,0.00,CLR,,0.00,WeatherDisplay:10.37,2014-11-26 15:48:00,
2014-11-26 10:53:00,33.3,32.8,29.38,SW,225,3.5,3.5,98,0.00,CLR,,0.00,WeatherDisplay:10.37,2014-11-26 15:53:00,
2014-11-26 10:58:00,33.3,32.8,29.38,SW,225,4.6,4.6,98,0.00,CLR,,0.00,WeatherDisplay:10.37,2014-11-26 15:58:00,
2014-11-26 11:03:00,33.4,32.9,29.38,South,180,3.5,3.5,98,0.00,CLR,,0.00,WeatherDisplay:10.37,2014-11-26 16:03:00,
2014-11-26 11:08:00,33.8,33.3,29.38,SW,225,3.5,3.5,98,0.00,CLR,,0.00,WeatherDisplay:10.37,2014-11-26 16:08:00,
2014-11-26 11:13:00,34.0,33.5,29.38,SW,225,5.8,5.8,98,0.00,CLR,,0.00,WeatherDisplay:10.37,2014-11-26 16:13:00,
2014-11-26 11:18:00,34.0,33.5,29.38,SW,225,0.0,0.0,98,0.00,CLR,,0.00,WeatherDisplay:10.37,2014-11-26 16:18:00,
2014-11-26 11:24:00,34.3,33.8,29.38,SW,225,4.6,4.6,98,0.00,CLR,,0.00,WeatherDisplay:10.37,2014-11-26 16:24:00,
2014-11-26 11:29:00,34.5,34.0,29.38,South,180,4.6,4.6,98,0.00,CLR,,0.00,WeatherDisplay:10.37,2014-11-26 16:29:00,
2014-11-26 11:34:00,34.7,34.2,29.35,South,180,5.8,5.8,98,0.00,CLR,,0.00,WeatherDisplay:10.37,2014-11-26 16:34:00,
2014-11-26 11:39:00,34.7,34.2,29.35,SW,225,5.8,5.8,98,0.00,CLR,,0.00,WeatherDisplay:10.37,2014-11-26 16:39:00,
2014-11-26 11:44:00,34.7,34.2,29.35,SW,225,2.3,2.3,98,0.00,CLR,,0.00,WeatherDisplay:10.37,2014-11-26 16:44:00,
2014-11-26 11:49:00,34.9,34.4,29.35,SW,225,2.3,0.0,98,0.00,CLR,,0.00,WeatherDisplay:10.37,2014-11-26 16:49:00,
2014-11-26 11:54:00,35.2,34.7,29.35,SW,225,3.5,3.5,98,0.00,CLR,,0.00,WeatherDisplay:10.37,2014-11-26 16:54:00,
2014-11-26 11:59:00,35.8,35.3,29.35,SW,225,0.0,0.0,98,0.00,CLR,,0.00,WeatherDisplay:10.37,2014-11-26 16:59:00,
2014-11-26 12:04:00,36.0,35.5,29.35,South,180,2.3,2.3,98,0.00,CLR,,0.00,WeatherDisplay:10.37,2014-11-26 17:04:00,
2014-11-26 12:09:00,36.0,35.5,29.35,SW,225,1.2,0.0,98,0.00,CLR,,0.00,WeatherDisplay:10.37,2014-11-26 17:09:00,
2014-11-26 12:14:00,35.8,35.3,29.35,SSW,202,2.3,2.3,98,0.00,CLR,,0.00,WeatherDisplay:10.37,2014-11-26 17:14:00,
2014-11-26 12:19:00,36.1,35.6,29.32,SSW,202,3.5,3.5,98,0.00,CLR,,0.00,WeatherDisplay:10.37,2014-11-26 17:19:00,
2014-11-26 12:24:00,36.0,35.5,29.32,SW,225,1.2,0.0,98,0.00,CLR,,0.00,WeatherDisplay:10.37,2014-11-26 17:24:00,
2014-11-26 12:29:00,36.3,35.8,29.32,SW,225,4.6,4.6,98,0.00,CLR,,0.00,WeatherDisplay:10.37,2014-11-26 17:29:00,
2014-11-26 12:34:00,36.5,36.0,29.32,SW,225,2.3,2.3,98,0.00,CLR,,0.00,WeatherDisplay:10.37,2014-11-26 17:34:00,
2014-11-26 12:39:00,36.7,36.2,29.32,NNE,22,2.4,2.4,98,0.00,CLR,,0.00,WeatherDisplay:10.37,2014-11-26 17:39:00,
2014-11-26 12:44:00,37.0,36.5,29.32,South,180,0.0,1.2,98,0.00,CLR,,0.00,WeatherDisplay:10.37,2014-11-26 17:44:00,
2014-11-26 12:49:00,36.5,36.0,29.32,South,180,3.5,3.5,98,0.00,CLR,,0.00,WeatherDisplay:10.37,2014-11-26 17:49:00,
2014-11-26 12:54:00,36.5,36.0,29.32,SW,225,1.2,1.2,98,0.00,CLR,,0.00,WeatherDisplay:10.37,2014-11-26 17:54:00,
2014-11-26 12:59:00,36.3,35.8,29.32,SW,225,1.2,0.0,98,0.00,CLR,,0.00,WeatherDisplay:10.37,2014-11-26 17:59:00,
2014-11-26 13:04:00,36.7,36.2,29.32,SW,225,0.0,0.0,98,0.00,CLR,,0.00,WeatherDisplay:10.37,2014-11-26 18:04:00,
2014-11-26 13:09:00,36.1,35.6,29.32,South,180,3.5,3.5,98,0.00,CLR,,0.00,WeatherDisplay:10.37,2014-11-26 18:09:00,
2014-11-26 13:14:00,36.7,36.2,29.32,SSE,158,1.2,0.0,98,0.00,CLR,,0.00,WeatherDisplay:10.37,2014-11-26 18:14:00,
2014-11-26 13:19:00,37.8,37.2,29.32,SW,225,0.0,0.0,98,0.00,CLR,,0.00,WeatherDisplay:10.37,2014-11-26 18:19:00,
2014-11-26 13:24:00,37.8,37.2,29.32,SSW,202,2.3,2.3,98,0.00,CLR,,0.00,WeatherDisplay:10.37,2014-11-26 18:24:00,
2014-11-26 13:29:00,37.4,36.9,29.32,SW,225,0.0,0.0,98,0.00,CLR,,0.00,WeatherDisplay:10.37,2014-11-26 18:29:00,
2014-11-26 13:34:00,37.8,37.2,29.32,SW,225,4.6,4.6,98,0.00,CLR,,0.00,WeatherDisplay:10.37,2014-11-26 18:34:00,
2014-11-26 13:39:00,37.6,37.1,29.32,North,0,3.5,3.5,98,0.00,CLR,,0.00,WeatherDisplay:10.37,2014-11-26 18:39:00,
2014-11-26 13:45:00,37.6,37.1,29.32,SSW,202,3.5,3.5,98,0.00,CLR,,0.00,WeatherDisplay:10.37,2014-11-26 18:45:00,
2014-11-26 13:50:00,37.2,36.7,29.32,South,180,2.3,2.6,98,0.00,CLR,,0.00,WeatherDisplay:10.37,2014-11-26 18:50:00,
2014-11-26 13:55:00,38.1,37.6,29.32,SSW,202,4.3,4.3,98,0.00,CLR,,0.00,WeatherDisplay:10.37,2014-11-26 18:55:00,
2014-11-26 14:00:00,37.6,37.1,29.32,South,180,2.6,2.6,98,0.00,CLR,,0.00,WeatherDisplay:10.37,2014-11-26 19:00:00,
2014-11-26 14:05:00,37.6,37.1,29.32,SW,225,2.3,2.3,98,0.00,CLR,,0.00,WeatherDisplay:10.37,2014-11-26 19:05:00,
2014-11-26 14:10:00,37.9,37.4,29.32,SSW,202,4.6,4.6,98,0.00,CLR,,0.00,WeatherDisplay:10.37,2014-11-26 19:10:00,
2014-11-26 14:15:00,37.8,37.2,29.32,South,180,4.6,4.6,98,0.00,CLR,,0.00,WeatherDisplay:10.37,2014-11-26 19:15:00,
2014-11-26 14:20:00,37.8,37.2,29.29,SW,225,1.2,0.0,98,0.00,CLR,,0.00,WeatherDisplay:10.37,2014-11-26 19:20:00,
2014-11-26 14:25:00,36.7,36.2,29.29,SE,135,4.6,4.6,98,0.00,CLR,,0.00,WeatherDisplay:10.37,2014-11-26 19:25:00,
2014-11-26 14:30:00,36.3,35.8,29.32,NNE,22,0.0,0.0,98,0.00,CLR,,0.00,WeatherDisplay:10.37,2014-11-26 19:30:00,
2014-11-26 14:35:00,37.0,36.5,29.32,NNE,22,0.0,0.0,98,0.00,CLR,,0.00,WeatherDisplay:10.37,2014-11-26 19:35:00,
2014-11-26 14:40:00,37.6,37.1,29.32,SW,225,2.3,2.3,98,0.00,CLR,,0.00,WeatherDisplay:10.37,2014-11-26 19:40:00,
2014-11-26 14:45:00,38.3,37.8,29.29,NE,45,3.5,3.5,98,0.00,CLR,,0.00,WeatherDisplay:10.37,2014-11-26 19:45:00,
2014-11-26 14:50:00,38.5,38.0,29.29,South,180,2.3,0.0,98,0.00,CLR,,0.00,WeatherDisplay:10.37,2014-11-26 19:50:00,
2014-11-26 14:55:00,38.1,37.6,29.29,NE,45,1.2,1.2,98,0.00,CLR,,0.00,WeatherDisplay:10.37,2014-11-26 19:55:00,
2014-11-26 15:00:00,37.8,37.2,29.29,SW,225,1.2,0.0,98,0.00,CLR,,0.00,WeatherDisplay:10.37,2014-11-26 20:00:00,
2014-11-26 15:05:00,37.4,36.9,29.29,South,180,2.3,2.3,98,0.00,CLR,,0.00,WeatherDisplay:10.37,2014-11-26 20:05:00,
2014-11-26 15:10:00,37.2,36.7,29.29,NE,45,4.6,4.6,98,0.00,CLR,,0.00,WeatherDisplay:10.37,2014-11-26 20:10:00,
2014-11-26 15:15:00,36.7,36.2,29.32,East,90,3.5,3.5,98,0.00,CLR,,0.00,WeatherDisplay:10.37,2014-11-26 20:15:00,
2014-11-26 15:22:00,36.7,36.2,29.32,East,90,2.3,2.6,98,0.00,CLR,,0.00,WeatherDisplay:10.37,2014-11-26 20:22:00,
2014-11-26 15:27:00,36.5,36.0,29.32,NE,45,2.3,2.3,98,0.00,CLR,,0.00,WeatherDisplay:10.37,2014-11-26 20:27:00,
2014-11-26 15:32:00,36.7,36.2,29.32,SW,225,2.3,2.3,98,0.00,CLR,,0.00,WeatherDisplay:10.37,2014-11-26 20:32:00,
2014-11-26 15:37:00,36.9,36.3,29.32,East,90,2.6,2.6,98,0.00,CLR,,0.00,WeatherDisplay:10.37,2014-11-26 20:37:00,
2014-11-26 15:42:00,36.7,36.2,29.32,NE,45,2.3,2.3,98,0.00,CLR,,0.00,WeatherDisplay:10.37,2014-11-26 20:42:00,
2014-11-26 15:47:00,36.3,35.8,29.29,SE,135,2.3,2.3,98,0.00,CLR,,0.00,WeatherDisplay:10.37,2014-11-26 20:47:00,
2014-11-26 15:52:00,36.1,35.6,29.29,NE,45,2.3,2.4,98,0.00,CLR,,0.00,WeatherDisplay:10.37,2014-11-26 20:52:00,
2014-11-26 15:57:00,36.0,35.5,29.29,SE,135,3.5,3.5,98,0.00,CLR,,0.00,WeatherDisplay:10.37,2014-11-26 20:57:00,